Date,TemperatureHighF,TemperatureAvgF,TemperatureLowF,DewpointHighF,DewpointAvgF,DewpointLowF,HumidityHigh,HumidityAvg,HumidityLow,PressureMaxIn,PressureMinIn,WindSpeedMaxMPH,WindSpeedAvgMPH,GustSpeedMaxMPH,PrecipitationSumIn
2013-1-1,47.3,40.0,35.8,37.6,33.6,30.4,85,78,62,30.04,29.58,6,1,9,0.00
2013-1-2,50.9,49.8,48.4,46.6,45.6,44.1,87,86,85,30.37,30.24,4,1,8,0.00
2013-1-3,53.8,49.7,46.9,48.1,45.3,43.3,87,85,79,30.65,30.37,4,1,8,0.00
2013-1-4,50.4,48.1,45.5,44.3,42.9,40.0,86,82,75,30.70,30.64,4,1,9,0.00
2013-1-5,52.3,48.2,45.1,44.6,43.0,40.3,86,82,73,30.65,30.54,7,0,11,0.00
2013-1-6,49.8,46.7,43.3,46.4,42.9,39.1,89,86,83,30.59,30.42,3,0,9,0.00
2013-1-7,49.1,47.3,45.7,43.6,42.6,41.1,86,84,80,30.42,30.26,4,1,8,20.68
2013-1-8,51.1,48.3,45.1,46.4,44.2,41.1,88,85,82,30.28,30.23,6,1,8,0.11
2013-1-9,45.3,38.3,33.3,41.5,34.6,29.7,91,86,76,30.30,30.17,6,1,9,20.80
2013-1-10,36.0,33.8,32.4,32.5,30.5,28.9,88,87,86,30.17,30.01,2,0,4,0.00
2013-1-11,46.8,38.1,34.2,40.1,34.6,30.7,92,87,76,30.15,30.03,3,0,4,0.02
2013-1-12,38.5,34.9,31.1,32.2,29.5,25.1,88,81,72,30.13,29.94,7,2,10,0.00
2013-1-13,41.7,31.8,27.5,33.7,27.2,22.9,88,83,70,30.25,30.12,3,0,4,0.03
2013-1-14,34.2,32.1,31.1,30.7,28.5,27.3,88,87,84,30.17,29.86,2,0,4,0.00
2013-1-18,27.9,26.5,25.7,22.8,21.4,20.9,82,81,79,29.62,29.55,4,2,8,0.00
2013-1-19,32.4,30.0,27.9,26.0,25.3,22.8,86,83,77,29.65,29.52,5,2,12,0.00
2013-1-20,32.2,30.8,29.5,27.9,26.3,23.8,86,83,77,29.62,29.39,8,1,11,0.00
2013-1-21,32.5,30.3,28.6,28.3,26.4,24.7,87,85,80,29.53,29.33,0,0,0,0.00
2013-1-22,32.4,29.8,25.2,28.6,25.5,19.8,87,84,64,29.83,29.53,0,0,2,0.01
2013-1-23,32.4,30.8,29.1,28.5,26.8,-99.9,87,86,83,29.95,29.83,1,0,49,0.01
2013-1-24,36.5,30.4,23.7,29.3,24.6,17.9,86,79,65,30.21,29.95,0,0,1,0.00
2013-1-25,35.1,31.1,24.1,30.6,24.6,18.6,86,77,69,30.19,29.54,6,1,11,0.02
2013-1-26,44.8,39.3,33.6,41.4,34.9,30.1,89,84,75,29.86,29.44,8,2,14,0.58
2013-1-27,50.9,44.1,37.2,46.5,36.1,29.7,89,74,49,29.60,29.20,8,2,15,0.07
2013-1-28,49.3,41.2,32.7,43.0,34.9,27.7,86,78,69,29.77,29.40,10,2,19,0.06
2013-1-29,55.8,50.4,45.9,49.3,44.2,39.2,86,79,69,29.64,29.45,8,2,17,0.04
2013-1-31,49.6,45.7,42.4,36.5,34.7,33.0,75,66,55,29.90,29.82,8,2,18,0.00
2013-2-1,50.2,41.7,38.7,38.0,35.2,32.5,87,78,58,29.85,29.52,8,1,11,0.07
2013-2-2,44.6,35.6,29.7,33.4,25.4,20.6,80,67,43,30.32,29.76,10,3,17,0.04
2013-2-3,49.6,42.2,30.6,42.7,36.0,24.6,85,78,74,30.31,29.92,5,1,13,0.00
2013-2-4,49.5,45.0,35.1,43.8,35.7,29.5,86,70,55,29.98,29.72,10,3,19,0.12
2013-2-5,43.0,35.7,32.2,35.5,28.5,25.4,87,75,59,29.72,29.36,8,2,17,0.12
2013-2-7,36.7,35.2,34.7,31.4,31.0,30.1,85,84,81,30.09,30.05,3,1,5,0.02
2013-2-8,35.2,35.2,35.2,31.2,31.2,31.2,85,85,85,30.09,30.09,2,2,2,0.00
2013-2-9,35.2,35.2,35.2,31.2,31.2,31.2,85,85,85,30.09,30.09,2,2,2,0.00
2013-2-10,35.2,35.2,35.2,31.2,31.2,31.2,85,85,85,30.09,30.09,2,2,2,0.00
2013-2-11,35.2,34.3,31.8,31.2,30.1,27.6,86,84,81,30.09,29.69,4,2,10,0.72
2013-2-12,34.5,32.2,30.6,28.1,25.6,23.7,86,76,67,30.20,29.91,2,0,5,0.00
2013-2-13,36.5,32.5,30.4,32.7,27.1,22.8,87,80,72,30.22,29.88,6,2,11,0.26
2013-2-14,51.4,43.2,36.7,42.9,38.5,32.9,92,84,69,30.05,29.74,7,1,11,2.78
2013-2-15,51.6,41.0,33.8,39.2,34.3,29.2,88,77,59,30.27,30.05,5,0,8,0.00
2013-2-16,50.5,39.5,30.7,39.7,33.2,27.3,90,79,56,30.29,30.22,3,0,6,0.00
2013-2-17,52.5,38.1,29.7,37.7,31.1,26.3,90,77,52,30.27,30.15,3,0,7,0.00
2013-2-18,50.4,38.7,31.3,35.5,31.5,27.3,86,76,56,30.22,30.16,4,0,6,0.00
2013-2-19,61.2,36.8,26.8,36.6,28.3,22.3,90,75,30,30.22,30.11,2,0,4,0.00
2013-2-20,38.7,36.4,34.5,32.7,28.4,24.0,87,73,62,30.33,30.28,6,2,10,0.00
2013-2-21,36.0,33.0,30.6,20.0,18.2,16.3,58,54,48,30.36,30.29,6,3,11,0.00
2013-2-22,33.1,32.1,30.9,21.9,20.8,19.2,64,62,57,30.27,30.23,7,2,11,0.00
2013-2-23,33.4,32.6,31.3,24.5,23.3,22.4,75,68,64,30.30,30.25,4,1,8,0.00
2013-2-24,34.7,33.8,31.8,26.3,24.8,23.2,74,69,63,30.43,30.30,7,2,10,0.00
2013-2-25,37.8,36.8,34.7,34.1,32.1,29.2,87,83,80,30.54,30.43,6,2,9,0.00
2013-2-26,37.6,36.6,35.4,34.4,32.5,31.3,88,85,84,30.69,30.56,7,2,9,0.01
2013-2-27,46.4,40.8,35.1,33.7,31.5,30.4,83,70,57,30.69,30.61,6,2,11,0.00
2013-2-28,50.7,44.5,37.9,35.4,27.6,19.0,88,55,29,30.54,30.49,5,2,8,0.00
2013-3-1,44.2,42.8,41.5,36.2,32.4,29.3,81,67,57,30.53,30.50,4,2,10,0.00
2013-3-2,54.0,40.1,32.4,33.8,28.4,24.6,77,64,44,30.49,30.33,4,0,9,0.00
2013-3-3,52.3,44.5,41.4,35.0,32.2,30.9,68,62,49,30.32,30.20,4,1,6,0.00
2013-3-4,46.0,40.0,32.9,32.6,30.2,27.1,80,68,58,30.08,29.84,4,1,5,0.00
2013-3-5,57.7,45.3,31.1,40.7,36.8,27.4,87,73,51,29.76,29.64,3,0,5,0.00
2013-3-6,42.4,39.4,34.9,39.1,36.2,32.0,89,88,88,29.67,29.62,5,2,11,0.00
2013-3-7,44.8,43.1,39.4,42.6,41.0,37.5,93,92,90,29.57,29.45,4,2,8,0.27
2013-3-8,42.6,42.3,41.9,41.0,40.7,40.3,94,94,94,29.57,29.53,3,1,6,0.16
2013-3-9,40.1,39.4,34.9,38.5,37.7,30.8,95,94,85,29.79,29.69,4,1,8,0.06
2013-3-10,34.3,32.5,29.7,30.1,26.6,20.6,86,79,66,29.91,29.82,9,3,17,0.00
2013-3-11,34.7,30.8,26.6,21.1,17.0,13.2,68,56,43,29.95,29.91,14,5,24,0.07
2013-3-12,38.7,35.1,25.7,25.6,23.2,19.2,79,62,54,29.98,29.91,6,2,10,0.48
2013-3-13,46.0,39.6,32.5,25.4,22.0,18.9,60,49,39,30.02,29.91,8,2,14,0.04
2013-3-14,43.3,37.1,26.1,30.9,25.8,20.2,80,64,48,30.08,29.93,3,0,7,0.17
2013-3-15,43.3,41.6,37.2,39.0,37.2,33.1,90,84,78,29.79,29.57,4,1,8,0.00
2013-3-16,42.1,40.3,38.5,37.6,36.2,34.5,90,85,79,29.36,29.28,4,1,6,0.50
2013-3-17,45.7,38.2,34.2,36.7,33.4,30.7,90,83,71,29.31,29.24,2,0,2,0.13
2013-3-18,50.5,46.9,41.4,38.4,35.8,33.0,73,65,59,29.32,29.30,4,1,8,0.00
2013-3-19,39.2,38.6,37.6,33.7,32.7,31.5,81,79,77,29.59,29.52,4,1,8,0.00
2013-3-20,39.0,37.0,34.9,31.6,30.5,29.2,85,77,72,29.92,29.80,4,1,7,0.00
2013-3-21,42.4,39.4,32.5,29.4,27.8,25.1,86,63,54,30.09,29.97,6,3,13,0.00
2013-3-23,32.7,32.3,31.8,29.3,28.7,28.0,87,86,85,29.96,29.95,0,0,0,0.00
2013-3-25,32.9,31.3,29.5,22.1,21.2,20.2,73,66,60,30.12,30.08,8,4,16,0.00
2013-3-26,36.3,32.5,30.2,21.0,19.4,18.2,65,58,49,30.08,30.03,8,3,14,0.00
2013-3-27,33.3,32.7,32.0,25.6,24.5,23.9,73,71,70,30.00,29.99,5,2,8,0.00
2013-3-28,38.5,37.4,36.7,23.1,21.0,19.7,55,51,49,30.01,30.00,6,3,11,0.00
2013-3-29,41.9,37.3,34.3,24.0,22.6,19.4,62,55,45,29.95,29.89,6,2,9,0.00
2013-3-30,42.8,38.1,33.8,29.5,25.1,19.3,69,59,50,30.04,29.96,6,2,10,0.00
2013-3-31,39.6,36.6,28.4,26.9,22.8,20.8,79,57,51,30.07,29.98,4,1,8,0.00
2013-4-1,37.4,36.4,32.4,25.0,22.5,19.3,67,57,49,29.98,29.95,7,3,11,0.00
2013-4-2,48.7,41.6,32.4,27.5,18.9,13.9,62,40,31,30.20,30.06,8,3,14,0.00
2013-4-3,43.3,38.2,29.3,26.4,18.4,14.1,86,48,32,30.19,30.14,8,4,26,0.00
2013-4-4,42.6,38.9,34.0,23.9,21.7,20.2,63,50,43,30.12,30.08,14,5,18,0.00
2013-4-5,47.7,42.1,39.2,29.5,26.4,23.4,66,54,40,30.13,30.11,10,4,17,0.00
2013-4-6,49.3,44.4,40.1,29.8,28.1,26.5,59,53,45,30.35,30.32,5,2,9,0.00
2013-4-7,34.9,31.3,28.0,23.9,22.3,18.5,72,69,62,30.24,30.23,1,0,2,0.00
2013-4-8,48.4,45.5,39.6,29.6,28.1,26.1,65,51,43,29.81,29.68,7,3,12,0.00
2013-4-9,51.8,46.7,36.7,34.1,31.5,28.7,81,56,43,29.63,29.50,7,3,11,0.00
2013-4-11,44.4,42.9,38.8,40.8,39.0,35.3,89,86,80,29.55,29.45,2,1,4,0.00
2013-4-12,53.4,47.0,42.6,42.0,40.8,39.5,93,80,59,29.65,29.36,6,1,11,0.00
2013-4-13,51.8,50.4,48.7,43.8,39.9,37.8,83,67,61,29.89,29.83,4,2,9,0.00
2013-4-14,64.8,59.8,50.7,47.6,45.7,44.5,81,60,52,29.91,29.80,10,5,18,0.00
2013-4-15,63.3,58.3,55.2,45.5,44.0,42.1,68,59,48,30.03,30.02,7,3,11,0.00
2013-4-16,59.7,57.2,54.5,41.2,37.7,35.1,56,48,42,30.04,29.90,7,3,14,0.00
2013-4-17,61.5,59.1,55.0,46.9,44.7,43.3,74,59,54,29.82,29.70,9,5,17,0.00
2013-4-18,59.9,53.7,47.3,42.5,35.7,28.3,81,52,37,30.00,29.81,10,3,21,0.00
2013-4-19,54.9,47.9,40.3,37.6,34.2,28.6,80,61,38,30.58,30.22,6,1,12,0.00
2013-4-20,60.4,54.5,45.5,39.4,33.1,29.8,57,44,33,30.57,30.42,4,0,5,0.00
2013-4-21,54.0,48.0,36.7,39.2,36.1,26.4,72,64,52,30.29,30.05,5,2,11,0.00
2013-4-22,59.5,54.4,50.0,41.8,39.8,37.4,71,58,48,30.03,29.97,6,2,12,0.00
2013-4-23,67.1,61.9,57.6,46.6,44.2,41.7,58,52,46,30.20,30.10,6,3,13,0.00
2013-4-24,63.1,58.0,54.3,51.3,48.6,45.5,76,71,61,30.25,30.22,5,2,11,0.00
2013-4-25,66.9,53.4,44.2,51.2,45.7,40.0,86,76,54,30.22,30.13,8,2,12,0.00
2013-4-26,55.6,49.1,41.9,40.0,31.4,18.8,85,52,24,30.19,29.99,10,4,14,0.00
2013-4-27,53.1,46.3,36.7,39.3,34.8,29.5,80,64,53,30.20,30.06,8,3,14,0.00
2013-4-28,54.1,48.2,39.4,41.3,37.8,33.0,87,68,49,30.11,29.87,6,2,11,0.00
2013-4-29,54.3,45.7,37.9,39.4,36.9,32.9,87,72,46,30.24,29.95,5,1,17,0.00
2013-4-30,56.3,53.2,47.7,39.9,34.7,31.1,68,50,40,30.36,30.33,6,2,9,0.00
2013-5-1,65.8,57.5,48.4,40.1,35.4,30.8,66,45,30,30.33,30.26,5,2,9,0.00
2013-5-2,66.6,61.1,55.4,39.0,35.6,32.2,46,39,30,30.32,30.24,4,1,7,0.00
2013-5-3,61.9,56.3,50.0,44.5,42.5,38.5,74,60,52,30.19,30.05,4,2,9,0.00
2013-5-4,65.8,55.1,45.9,49.0,41.5,37.0,80,61,43,30.18,29.96,8,2,12,0.00
2013-5-5,68.5,61.2,50.5,50.2,46.6,41.8,76,59,49,30.24,30.19,5,1,11,0.00
2013-5-6,75.2,64.6,47.5,46.0,39.6,31.4,88,42,24,30.21,30.10,4,1,8,0.00
2013-5-7,71.1,63.1,46.8,46.8,44.0,40.3,89,52,38,30.13,29.94,4,1,8,0.00
2013-5-8,60.8,53.4,48.0,54.9,47.2,39.0,96,80,65,29.81,29.68,5,2,11,0.00
2013-5-9,49.6,47.7,43.5,47.8,44.3,39.9,94,88,82,29.80,29.55,8,2,11,5.09
2013-5-10,62.6,52.8,50.4,49.2,45.8,44.5,93,78,54,29.87,29.79,6,2,14,0.00
2013-5-11,57.6,49.4,40.8,51.6,43.0,37.7,90,78,68,29.95,29.79,6,2,15,0.00
2013-5-12,55.9,52.1,48.4,50.3,43.2,38.8,96,72,58,30.03,29.89,6,2,11,0.00
2013-5-13,59.4,50.9,41.9,43.2,37.7,33.7,82,61,42,29.91,29.81,8,2,15,0.00
2013-5-14,51.3,47.9,44.4,43.5,41.1,36.7,94,78,61,29.67,29.47,4,1,8,0.00
2013-5-15,55.9,48.1,40.1,46.8,40.1,35.6,97,75,53,29.61,29.24,8,3,15,0.00
2013-5-16,61.5,54.7,46.8,43.4,37.9,33.0,86,54,35,29.64,29.54,4,0,7,0.00
2013-5-17,54.5,51.0,45.9,44.1,42.5,41.2,93,74,62,29.88,29.73,4,1,6,0.00
2013-5-18,53.8,52.0,51.1,46.7,46.1,45.5,83,80,76,29.85,29.80,2,0,3,0.00
2013-5-19,66.6,57.7,50.0,50.7,47.8,45.5,88,70,55,30.02,29.94,6,2,10,0.00
2013-5-20,63.1,58.2,54.1,56.3,53.8,52.0,93,85,77,30.05,29.97,9,4,14,0.00
2013-5-21,55.4,51.8,46.9,52.1,48.4,43.3,96,88,81,30.19,30.05,8,3,13,0.00
2013-5-22,55.8,51.0,43.0,46.7,39.0,35.1,86,64,52,30.19,30.12,11,4,22,0.00
2013-5-23,54.0,45.2,39.4,40.0,36.8,31.5,89,73,45,30.12,29.96,11,4,20,0.00
2013-5-24,50.0,47.4,41.4,39.7,37.8,36.5,86,69,66,29.96,29.79,12,11,20,0.00
2013-5-25,47.5,47.5,47.5,37.8,37.8,37.8,69,69,69,29.80,29.80,12,12,16,0.00
2013-5-26,70.2,61.6,45.7,44.0,39.8,33.1,80,47,27,30.20,30.00,7,1,9,0.00
2013-5-27,63.1,55.1,46.6,44.7,41.6,39.2,87,61,44,30.00,29.66,8,3,17,0.00
2013-5-28,51.8,49.8,48.0,51.3,49.4,44.7,99,98,87,29.68,29.53,4,1,9,5.09
2013-5-29,59.0,52.0,46.2,54.0,50.8,45.4,99,96,79,29.88,29.63,7,2,10,0.00
2013-5-30,60.8,55.9,52.2,54.2,52.1,50.1,98,87,73,30.12,29.88,8,2,11,0.00
2013-5-31,72.7,63.2,50.5,55.7,50.9,44.3,91,65,52,30.26,30.11,8,3,16,0.00
2013-6-1,62.6,57.0,49.8,45.2,43.0,40.2,83,60,47,30.42,30.26,11,4,17,0.00
2013-6-2,64.6,59.1,50.0,45.2,42.4,39.3,83,54,45,30.52,30.41,8,2,14,0.00
2013-6-3,68.0,60.1,47.1,47.1,45.6,44.4,91,60,44,30.57,30.50,5,1,9,0.00
2013-6-4,65.5,56.6,45.5,50.0,46.0,40.0,83,69,45,30.51,30.35,5,1,8,0.00
2013-6-5,59.4,55.4,48.0,49.6,47.8,44.2,88,76,68,30.29,30.21,4,1,6,0.00
2013-6-6,64.2,55.4,49.8,50.0,47.9,46.6,89,77,58,30.30,30.27,4,2,7,0.00
2013-6-7,70.7,62.7,51.8,53.7,48.9,43.6,82,61,50,30.36,30.31,5,2,9,0.00
2013-6-8,65.3,59.2,50.5,49.2,47.4,45.5,83,66,55,30.31,30.20,8,2,14,0.00
2013-6-9,67.1,60.5,51.3,49.7,47.7,45.8,82,63,53,30.14,30.03,4,1,7,0.00
2013-6-10,59.7,55.1,47.8,46.0,44.8,43.3,87,69,59,30.08,29.99,2,0,4,0.00
2013-6-11,66.2,62.0,57.0,57.1,54.4,51.4,85,76,70,29.89,29.86,5,2,10,0.00
2013-6-12,64.2,59.3,56.7,56.1,55.1,51.1,96,86,67,29.87,29.79,4,2,11,0.00